Location: *
(58.4167°N, 22.5000°E)
Time: 20:18:48
(UTC+00:00)

H-2A R/B - Pass Details

Date: 22 September 2019
Orbit: 734 x 836 km, 98.3° (Epoch: 13 October)

Event Time Altitude Azimuth Distance (km) Brightness Sun altitude
Exits shadow 18:40:24 - 181° (S) 2,596 4.5 -17.0°
Reaches altitude 10° 18:41:15 10° 183° (S) 2,266 4.2 -17.1°
Maximum altitude 18:46:07 52° 260° (W) 947 2.7 -17.7°
Drops below altitude 10° 18:51:08 10° 337° (NNW) 2,338 5.3 -18.2°
Sets 18:53:34 0° 342° (NNW) 3,287 6.1 -18.5°
